DAP2998 SPHY-SCCF

Flight info

Callsign DAP2998
Flight time 1h 40m
Altitude 27000
Route AND ERODI KATOS ILO SIRAM UM789 OPLES UL797 AKNUV UM789 VUREL VURE3F
Aircraft RJ1H/M-Y/S

Departure

Time 2026-05-05 07:57
Airport Andahuaylas Airport (SPHY)

Arrival

Time 2026-05-05 09:37
Airport El Loa Airport (SCCF)
Time Latitude Longitude Altitude Speed Heading
2026-05-05 07:28 -13.71292 -73.35288 11625 ft 0 kts 128°
2026-05-05 07:41 -13.71287 -73.35295 11618 ft 4 kts 123°
2026-05-05 07:41 -13.71284 -73.35314 11622 ft 4 kts 38°
2026-05-05 07:41 -13.71289 -73.35318 11622 ft 0 kts 29°
2026-05-05 07:50 -13.71289 -73.35317 11622 ft 0 kts 29°
2026-05-05 07:50 -13.71264 -73.35303 11624 ft 10 kts 29°
2026-05-05 07:50 -13.71202 -73.35331 11621 ft 13 kts 338°
2026-05-05 07:50 -13.71113 -73.35290 11623 ft 17 kts 32°
2026-05-05 07:51 -13.70979 -73.35202 11621 ft 28 kts 32°
2026-05-05 07:51 -13.70795 -73.35086 11620 ft 32 kts 32°
2026-05-05 07:51 -13.70607 -73.34967 11632 ft 30 kts 32°
2026-05-05 07:51 -13.70442 -73.34863 11647 ft 26 kts 32°
2026-05-05 07:52 -13.70295 -73.34769 11661 ft 24 kts 32°
2026-05-05 07:52 -13.70155 -73.34681 11669 ft 23 kts 32°
2026-05-05 07:52 -13.70019 -73.34602 11664 ft 21 kts
2026-05-05 07:52 -13.69923 -73.34568 11673 ft 9 kts 60°
2026-05-05 07:53 -13.69946 -73.34542 11674 ft 3 kts 209°
2026-05-05 07:53 -13.69952 -73.34546 11676 ft 0 kts 214°
2026-05-05 07:55 -13.70089 -73.34636 11673 ft 48 kts 212°
2026-05-05 07:55 -13.70506 -73.34901 11644 ft 92 kts 212°
2026-05-05 07:55 -13.71166 -73.35321 11622 ft 128 kts 212°
2026-05-05 07:55 -13.72000 -73.35849 11573 ft 141 kts 211°
2026-05-05 07:56 -13.72821 -73.36360 11747 ft 137 kts 212°
2026-05-05 07:56 -13.73628 -73.36989 11594 ft 149 kts 227°
2026-05-05 07:56 -13.74397 -73.37744 11669 ft 159 kts 218°
2026-05-05 07:56 -13.75360 -73.38316 11889 ft 161 kts 193°
2026-05-05 07:57 -13.76459 -73.38192 12055 ft 166 kts 150°
2026-05-05 07:57 -13.77376 -73.37497 12377 ft 159 kts 142°
2026-05-05 07:57 -13.78348 -73.36985 12532 ft 164 kts 168°
2026-05-05 07:57 -13.79529 -73.37002 12582 ft 176 kts 191°
2026-05-05 07:58 -13.80717 -73.37132 12863 ft 169 kts 175°
2026-05-05 07:58 -13.81837 -73.36737 12981 ft 177 kts 142°
2026-05-05 07:58 -13.82643 -73.35742 13096 ft 182 kts 121°
2026-05-05 07:58 -13.83220 -73.34643 13529 ft 170 kts 114°
2026-05-05 07:59 -13.83630 -73.33451 13615 ft 183 kts 101°
2026-05-05 07:59 -13.83647 -73.32127 13803 ft 188 kts 76°
2026-05-05 07:59 -13.83189 -73.30877 14075 ft 187 kts 66°
2026-05-05 07:59 -13.82681 -73.29632 14289 ft 190 kts 71°
2026-05-05 08:00 -13.82386 -73.28308 14524 ft 190 kts 84°
2026-05-05 08:00 -13.82407 -73.26968 14769 ft 190 kts 100°
2026-05-05 08:00 -13.82654 -73.25631 15027 ft 189 kts 102°
2026-05-05 08:00 -13.82959 -73.24319 15318 ft 188 kts 105°
2026-05-05 08:01 -13.83288 -73.22995 15465 ft 196 kts 102°
2026-05-05 08:01 -13.83510 -73.21590 15583 ft 201 kts 94°
2026-05-05 08:01 -13.83527 -73.20191 15568 ft 198 kts 85°
2026-05-05 08:01 -13.83335 -73.18762 15739 ft 205 kts 81°
2026-05-05 08:02 -13.83100 -73.17276 15772 ft 216 kts 69°
2026-05-05 08:02 -13.82366 -73.15911 15974 ft 221 kts 59°
2026-05-05 08:02 -13.81538 -73.14540 16062 ft 229 kts 58°
2026-05-05 08:02 -13.80672 -73.13151 16220 ft 233 kts 57°
2026-05-05 08:03 -13.79775 -73.11743 16347 ft 239 kts 57°
2026-05-05 08:03 -13.78820 -73.10255 16381 ft 261 kts 58°
2026-05-05 08:03 -13.78108 -73.08483 16480 ft 279 kts 85°
2026-05-05 08:03 -13.78312 -73.06441 16645 ft 296 kts 102°
2026-05-05 08:04 -13.78802 -73.04329 16818 ft 311 kts 104°
2026-05-05 08:04 -13.79353 -73.02168 16996 ft 323 kts 105°
2026-05-05 08:04 -13.79952 -72.99899 17236 ft 334 kts 104°
2026-05-05 08:04 -13.80555 -72.97566 17413 ft 342 kts 104°
2026-05-05 08:05 -13.81157 -72.95168 17587 ft 350 kts 103°
2026-05-05 08:05 -13.81748 -72.92713 17709 ft 358 kts 103°
2026-05-05 08:05 -13.82388 -72.90212 17939 ft 363 kts 110°
2026-05-05 08:05 -13.83737 -72.88030 18263 ft 366 kts 135°
2026-05-05 08:06 -13.85874 -72.86605 18497 ft 371 kts 156°
2026-05-05 08:06 -13.88325 -72.85734 18742 ft 373 kts 162°
2026-05-05 08:06 -13.90843 -72.85027 18934 ft 376 kts 164°
2026-05-05 08:06 -13.93399 -72.84409 19083 ft 378 kts 165°
2026-05-05 08:07 -13.95972 -72.83812 19297 ft 379 kts 165°
2026-05-05 08:07 -13.98553 -72.83208 19518 ft 382 kts 165°
2026-05-05 08:07 -14.01147 -72.82582 19754 ft 383 kts 165°
2026-05-05 08:07 -14.03744 -72.81924 19977 ft 385 kts 164°
2026-05-05 08:08 -14.06347 -72.81256 20196 ft 387 kts 164°
2026-05-05 08:08 -14.08965 -72.80574 20428 ft 389 kts 164°
2026-05-05 08:08 -14.11594 -72.79886 20693 ft 391 kts 164°
2026-05-05 08:08 -14.14203 -72.79203 20924 ft 393 kts 164°
2026-05-05 08:09 -14.16865 -72.78506 21163 ft 394 kts 164°
2026-05-05 08:09 -14.19527 -72.77808 21378 ft 396 kts 164°
2026-05-05 08:09 -14.22210 -72.77104 21583 ft 399 kts 164°
2026-05-05 08:09 -14.24903 -72.76404 21826 ft 400 kts 164°
2026-05-05 08:10 -14.27615 -72.75714 22034 ft 402 kts 164°
2026-05-05 08:10 -14.30326 -72.75011 22262 ft 403 kts 164°
2026-05-05 08:10 -14.33054 -72.74298 22468 ft 405 kts 164°
2026-05-05 08:10 -14.35792 -72.73581 22698 ft 407 kts 164°
2026-05-05 08:11 -14.38538 -72.72866 22900 ft 409 kts 164°
2026-05-05 08:11 -14.41309 -72.72164 23102 ft 410 kts 164°
2026-05-05 08:11 -14.44081 -72.71444 23271 ft 412 kts 164°
2026-05-05 08:11 -14.46864 -72.70714 23483 ft 413 kts 164°
2026-05-05 08:12 -14.49658 -72.69979 23675 ft 415 kts 164°
2026-05-05 08:12 -14.52465 -72.69250 23868 ft 417 kts 164°
2026-05-05 08:12 -14.55286 -72.68528 24016 ft 418 kts 164°
2026-05-05 08:12 -14.58075 -72.67801 24187 ft 419 kts 164°
2026-05-05 08:13 -14.60494 -72.67184 24332 ft 420 kts 165°
2026-05-05 08:13 -14.63339 -72.66451 24495 ft 421 kts 164°
2026-05-05 08:13 -14.66184 -72.65697 24647 ft 423 kts 164°
2026-05-05 08:13 -14.69045 -72.64955 24793 ft 424 kts 165°
2026-05-05 08:14 -14.71921 -72.64216 24897 ft 427 kts 165°
2026-05-05 08:14 -14.74798 -72.63478 25099 ft 426 kts 165°
2026-05-05 08:14 -14.77657 -72.62742 25526 ft 418 kts 165°
2026-05-05 08:14 -14.80463 -72.62012 25886 ft 414 kts 165°
2026-05-05 08:15 -14.83255 -72.61282 26107 ft 414 kts 165°
2026-05-05 08:15 -14.86006 -72.60554 26313 ft 413 kts 165°
2026-05-05 08:15 -14.88787 -72.59813 26506 ft 413 kts 165°
2026-05-05 08:15 -14.91577 -72.59065 26715 ft 413 kts 165°
2026-05-05 08:16 -14.94369 -72.58339 26916 ft 413 kts 165°
2026-05-05 08:16 -14.97158 -72.57623 27101 ft 412 kts 166°
2026-05-05 08:16 -14.99939 -72.56910 27211 ft 412 kts 166°
2026-05-05 08:16 -15.02711 -72.56196 27240 ft 405 kts 166°
2026-05-05 08:17 -15.05409 -72.55486 27248 ft 405 kts 165°
2026-05-05 08:17 -15.08147 -72.54766 27244 ft 406 kts 166°
2026-05-05 08:17 -15.10883 -72.54054 27246 ft 407 kts 166°
2026-05-05 08:17 -15.13649 -72.53335 27247 ft 412 kts 166°
2026-05-05 08:18 -15.16451 -72.52608 27247 ft 418 kts 166°
2026-05-05 08:18 -15.19291 -72.51871 27248 ft 423 kts 166°
2026-05-05 08:18 -15.22155 -72.51112 27246 ft 428 kts 165°
2026-05-05 08:18 -15.25055 -72.50342 27234 ft 431 kts 166°
2026-05-05 08:19 -15.27971 -72.49577 27232 ft 433 kts 166°
2026-05-05 08:19 -15.30899 -72.48810 27220 ft 434 kts 166°
2026-05-05 08:19 -15.33830 -72.48043 27217 ft 434 kts 166°
2026-05-05 08:19 -15.36763 -72.47274 27203 ft 434 kts 166°
2026-05-05 08:20 -15.39697 -72.46505 27192 ft 434 kts 166°
2026-05-05 08:20 -15.42630 -72.45734 27190 ft 435 kts 166°
2026-05-05 08:20 -15.45527 -72.44973 27189 ft 435 kts 166°
2026-05-05 08:20 -15.48466 -72.44200 27174 ft 435 kts 166°
2026-05-05 08:21 -15.51397 -72.43428 27177 ft 435 kts 166°
2026-05-05 08:21 -15.54334 -72.42654 27161 ft 435 kts 166°
2026-05-05 08:21 -15.57277 -72.41876 27158 ft 436 kts 166°
2026-05-05 08:21 -15.60217 -72.41099 27149 ft 436 kts 166°
2026-05-05 08:22 -15.63155 -72.40320 27135 ft 435 kts 166°
2026-05-05 08:22 -15.66081 -72.39544 27124 ft 433 kts 166°
2026-05-05 08:22 -15.69005 -72.38770 27128 ft 433 kts 166°
2026-05-05 08:22 -15.70938 -72.38258 27121 ft 434 kts 166°
2026-05-05 08:23 -15.74809 -72.37229 27108 ft 438 kts 166°
2026-05-05 08:23 -15.75781 -72.36971 27107 ft 440 kts 166°
2026-05-05 08:23 -15.79383 -72.36005 27090 ft 445 kts 163°
2026-05-05 08:23 -15.82325 -72.34946 27087 ft 449 kts 158°
2026-05-05 08:24 -15.85184 -72.33610 27089 ft 453 kts 154°
2026-05-05 08:24 -15.87091 -72.32618 27092 ft 456 kts 152°
2026-05-05 08:24 -15.89911 -72.31073 27096 ft 459 kts 152°
2026-05-05 08:24 -15.92743 -72.29511 27086 ft 462 kts 152°
2026-05-05 08:25 -15.95594 -72.27948 27074 ft 463 kts 152°
2026-05-05 08:25 -15.98457 -72.26407 27063 ft 464 kts 153°
2026-05-05 08:25 -16.01330 -72.24872 27062 ft 465 kts 153°
2026-05-05 08:25 -16.04177 -72.23355 27058 ft 464 kts 153°
2026-05-05 08:26 -16.07053 -72.21826 27052 ft 464 kts 153°
2026-05-05 08:26 -16.09935 -72.20295 27051 ft 465 kts 153°
2026-05-05 08:26 -16.12814 -72.18763 27045 ft 465 kts 153°
2026-05-05 08:26 -16.15690 -72.17234 27047 ft 465 kts 153°
2026-05-05 08:27 -16.18575 -72.15700 27042 ft 465 kts 153°
2026-05-05 08:27 -16.21456 -72.14166 27042 ft 465 kts 153°
2026-05-05 08:27 -16.24336 -72.12633 27038 ft 465 kts 153°
2026-05-05 08:27 -16.27215 -72.11105 27035 ft 464 kts 153°
2026-05-05 08:28 -16.30089 -72.09575 27031 ft 465 kts 153°
2026-05-05 08:28 -16.32971 -72.08041 27037 ft 465 kts 153°
2026-05-05 08:28 -16.35857 -72.06507 27029 ft 466 kts 153°
2026-05-05 08:28 -16.38743 -72.04967 27025 ft 466 kts 153°
2026-05-05 08:29 -16.41631 -72.03443 27026 ft 466 kts 153°
2026-05-05 08:29 -16.44523 -72.01911 27022 ft 466 kts 153°
2026-05-05 08:29 -16.47408 -72.00372 27022 ft 466 kts 153°
2026-05-05 08:30 -16.53148 -71.97300 27021 ft 466 kts 153°
2026-05-05 08:30 -16.56032 -71.95754 27027 ft 467 kts 153°
2026-05-05 08:30 -16.58931 -71.94201 27026 ft 467 kts 153°
2026-05-05 08:30 -16.61826 -71.92656 27024 ft 468 kts 153°
2026-05-05 08:31 -16.64732 -71.91121 27023 ft 467 kts 153°
2026-05-05 08:31 -16.67628 -71.89575 27019 ft 467 kts 153°
2026-05-05 08:31 -16.70521 -71.88027 27023 ft 467 kts 153°
2026-05-05 08:31 -16.73413 -71.86476 27022 ft 467 kts 153°
2026-05-05 08:32 -16.76298 -71.84929 27015 ft 467 kts 153°
2026-05-05 08:32 -16.79185 -71.83381 27015 ft 466 kts 153°
2026-05-05 08:32 -16.82032 -71.81854 27012 ft 466 kts 153°
2026-05-05 08:32 -16.84918 -71.80306 27013 ft 467 kts 153°
2026-05-05 08:33 -16.87804 -71.78757 27010 ft 467 kts 153°
2026-05-05 08:33 -16.90701 -71.77201 27008 ft 467 kts 153°
2026-05-05 08:33 -16.93595 -71.75668 27005 ft 467 kts 153°
2026-05-05 08:33 -16.96495 -71.74127 27008 ft 468 kts 153°
2026-05-05 08:34 -16.99392 -71.72575 27005 ft 468 kts 153°
2026-05-05 08:34 -17.02289 -71.71018 26999 ft 468 kts 153°
2026-05-05 08:34 -17.05178 -71.69460 27003 ft 468 kts 153°
2026-05-05 08:34 -17.08071 -71.67899 27008 ft 468 kts 153°
2026-05-05 08:35 -17.10971 -71.66332 27007 ft 468 kts 153°
2026-05-05 08:35 -17.13866 -71.64782 27004 ft 468 kts 153°
2026-05-05 08:35 -17.16777 -71.63239 27005 ft 468 kts 153°
2026-05-05 08:35 -17.19671 -71.61680 27002 ft 469 kts 153°
2026-05-05 08:36 -17.22568 -71.60115 27002 ft 469 kts 153°
2026-05-05 08:36 -17.25462 -71.58548 27005 ft 469 kts 153°
2026-05-05 08:36 -17.28364 -71.56982 26997 ft 469 kts 153°
2026-05-05 08:36 -17.31275 -71.55439 26994 ft 469 kts 153°
2026-05-05 08:37 -17.34172 -71.53876 26992 ft 469 kts 153°
2026-05-05 08:37 -17.37071 -71.52301 26992 ft 469 kts 153°
2026-05-05 08:37 -17.39976 -71.50739 26990 ft 469 kts 153°
2026-05-05 08:37 -17.42843 -71.49210 26989 ft 469 kts 153°
2026-05-05 08:38 -17.45739 -71.47637 26992 ft 469 kts 153°
2026-05-05 08:38 -17.48652 -71.46061 26990 ft 469 kts 153°
2026-05-05 08:38 -17.51560 -71.44511 26991 ft 469 kts 153°
2026-05-05 08:38 -17.54462 -71.42937 26991 ft 469 kts 153°
2026-05-05 08:39 -17.57361 -71.41357 26991 ft 470 kts 153°
2026-05-05 08:39 -17.60027 -71.39928 26991 ft 470 kts 153°
2026-05-05 08:39 -17.62930 -71.38372 26990 ft 469 kts 153°
2026-05-05 08:39 -17.65832 -71.36785 26992 ft 469 kts 153°
2026-05-05 08:40 -17.68747 -71.35234 26997 ft 469 kts 155°
2026-05-05 08:40 -17.71725 -71.33819 26993 ft 469 kts 158°
2026-05-05 08:40 -17.74717 -71.32526 26991 ft 469 kts 159°
2026-05-05 08:40 -17.77749 -71.31262 26989 ft 469 kts 159°
2026-05-05 08:41 -17.80791 -71.30009 26990 ft 469 kts 159°
2026-05-05 08:41 -17.83838 -71.28757 26986 ft 469 kts 159°
2026-05-05 08:41 -17.86869 -71.27482 26986 ft 469 kts 159°
2026-05-05 08:41 -17.89897 -71.26196 26986 ft 469 kts 159°
2026-05-05 08:42 -17.92924 -71.24904 26989 ft 470 kts 159°
2026-05-05 08:42 -17.95955 -71.23608 26988 ft 470 kts 159°
2026-05-05 08:42 -17.98941 -71.22328 26985 ft 470 kts 159°
2026-05-05 08:42 -18.01973 -71.21026 26986 ft 470 kts 159°
2026-05-05 08:43 -18.04999 -71.19732 26985 ft 470 kts 159°
2026-05-05 08:43 -18.08030 -71.18463 26987 ft 470 kts 159°
2026-05-05 08:43 -18.11069 -71.17166 26987 ft 470 kts 159°
2026-05-05 08:43 -18.14095 -71.15864 26987 ft 470 kts 159°
2026-05-05 08:44 -18.17134 -71.14571 26986 ft 470 kts 159°
2026-05-05 08:44 -18.20171 -71.13296 26983 ft 470 kts 159°
2026-05-05 08:44 -18.23199 -71.11995 26983 ft 470 kts 159°
2026-05-05 08:44 -18.26231 -71.10684 26984 ft 470 kts 159°
2026-05-05 08:45 -18.29264 -71.09400 26984 ft 470 kts 159°
2026-05-05 08:45 -18.32257 -71.08137 26987 ft 470 kts 159°
2026-05-05 08:45 -18.35283 -71.06831 26986 ft 470 kts 159°
2026-05-05 08:45 -18.38306 -71.05533 26988 ft 470 kts 159°
2026-05-05 08:46 -18.41349 -71.04247 26987 ft 470 kts 159°
2026-05-05 08:46 -18.44377 -71.02957 26984 ft 470 kts 159°
2026-05-05 08:46 -18.47403 -71.01647 26984 ft 470 kts 159°
2026-05-05 08:46 -18.50436 -71.00358 26988 ft 470 kts 159°
2026-05-05 08:47 -18.53466 -70.99075 26988 ft 470 kts 159°
2026-05-05 08:47 -18.56469 -70.97779 26987 ft 470 kts 159°
2026-05-05 08:47 -18.59502 -70.96463 26989 ft 470 kts 159°
2026-05-05 08:47 -18.62527 -70.95172 26987 ft 470 kts 159°
2026-05-05 08:48 -18.65559 -70.93883 26989 ft 470 kts 159°
2026-05-05 08:48 -18.68591 -70.92592 26988 ft 469 kts 159°
2026-05-05 08:48 -18.71614 -70.91276 26991 ft 469 kts 159°
2026-05-05 08:48 -18.74639 -70.89977 26989 ft 469 kts 159°
2026-05-05 08:49 -18.77661 -70.88687 26989 ft 469 kts 159°
2026-05-05 08:49 -18.80690 -70.87395 26988 ft 469 kts 159°
2026-05-05 08:49 -18.83708 -70.86094 26988 ft 469 kts 159°
2026-05-05 08:49 -18.86732 -70.84777 26987 ft 469 kts 159°
2026-05-05 08:50 -18.89759 -70.83477 26989 ft 469 kts 159°
2026-05-05 08:50 -18.92745 -70.82196 26993 ft 469 kts 159°
2026-05-05 08:50 -18.95775 -70.80898 26991 ft 469 kts 159°
2026-05-05 08:50 -18.98797 -70.79604 26992 ft 469 kts 159°
2026-05-05 08:51 -19.01820 -70.78296 26992 ft 469 kts 159°
2026-05-05 08:51 -19.04830 -70.76978 26993 ft 469 kts 159°
2026-05-05 08:51 -19.07851 -70.75677 26992 ft 468 kts 159°
2026-05-05 08:51 -19.10868 -70.74380 26991 ft 468 kts 159°
2026-05-05 08:52 -19.13879 -70.73089 26992 ft 467 kts 159°
2026-05-05 08:52 -19.16895 -70.71796 26990 ft 467 kts 159°
2026-05-05 08:52 -19.19899 -70.70484 26993 ft 467 kts 159°
2026-05-05 08:52 -19.22903 -70.69169 26992 ft 467 kts 159°
2026-05-05 08:53 -19.25915 -70.67870 26993 ft 467 kts 159°
2026-05-05 08:53 -19.28924 -70.66576 26992 ft 467 kts 159°
2026-05-05 08:53 -19.31929 -70.65287 26991 ft 467 kts 159°
2026-05-05 08:53 -19.34937 -70.63983 26991 ft 467 kts 159°
2026-05-05 08:54 -19.37936 -70.62661 26991 ft 467 kts 159°
2026-05-05 08:54 -19.40946 -70.61359 26988 ft 467 kts 159°
2026-05-05 08:54 -19.43957 -70.60079 26990 ft 467 kts 160°
2026-05-05 08:54 -19.47002 -70.58878 26989 ft 467 kts 161°
2026-05-05 08:55 -19.50069 -70.57739 26990 ft 467 kts 163°
2026-05-05 08:55 -19.53148 -70.56644 26991 ft 467 kts 163°
2026-05-05 08:55 -19.56226 -70.55539 26992 ft 467 kts 162°
2026-05-05 08:55 -19.59296 -70.54425 26992 ft 467 kts 162°
2026-05-05 08:56 -19.62331 -70.53320 26995 ft 467 kts 162°
2026-05-05 08:56 -19.65440 -70.52188 26992 ft 467 kts 162°
2026-05-05 08:56 -19.68479 -70.51079 26993 ft 467 kts 162°
2026-05-05 08:56 -19.71550 -70.49957 26991 ft 467 kts 162°
2026-05-05 08:57 -19.74627 -70.48831 26992 ft 468 kts 162°
2026-05-05 08:57 -19.77709 -70.47700 26992 ft 468 kts 162°
2026-05-05 08:57 -19.80794 -70.46568 26993 ft 468 kts 162°
2026-05-05 08:57 -19.83877 -70.45433 26995 ft 468 kts 162°
2026-05-05 08:58 -19.86950 -70.44301 26995 ft 468 kts 162°
2026-05-05 08:58 -19.90031 -70.43164 26995 ft 468 kts 162°
2026-05-05 08:58 -19.93105 -70.42027 26995 ft 469 kts 162°
2026-05-05 08:58 -19.96192 -70.40884 26998 ft 469 kts 162°
2026-05-05 08:59 -19.99276 -70.39740 26996 ft 469 kts 162°
2026-05-05 08:59 -20.02350 -70.38600 27000 ft 468 kts 162°
2026-05-05 08:59 -20.05391 -70.37470 26998 ft 468 kts 162°
2026-05-05 08:59 -20.08462 -70.36328 26999 ft 468 kts 162°
2026-05-05 09:00 -20.11528 -70.35186 26997 ft 468 kts 162°
2026-05-05 09:00 -20.14606 -70.34040 26998 ft 467 kts 162°
2026-05-05 09:00 -20.17670 -70.32897 26995 ft 467 kts 162°
2026-05-05 09:00 -20.20742 -70.31749 26998 ft 467 kts 162°
2026-05-05 09:01 -20.23807 -70.30609 26997 ft 466 kts 163°
2026-05-05 09:01 -20.26881 -70.29494 26997 ft 466 kts 163°
2026-05-05 09:01 -20.29946 -70.28361 26998 ft 467 kts 162°
2026-05-05 09:01 -20.33013 -70.27215 26998 ft 466 kts 162°
2026-05-05 09:02 -20.36073 -70.26068 26996 ft 466 kts 162°
2026-05-05 09:02 -20.38101 -70.25309 27007 ft 466 kts 162°
2026-05-05 09:02 -20.41998 -70.23881 26992 ft 465 kts 163°
2026-05-05 09:02 -20.45059 -70.22745 26992 ft 465 kts 162°
2026-05-05 09:03 -20.48114 -70.21605 26995 ft 465 kts 162°
2026-05-05 09:03 -20.51164 -70.20466 26995 ft 465 kts 162°
2026-05-05 09:03 -20.54216 -70.19324 27002 ft 465 kts 162°
2026-05-05 09:03 -20.57231 -70.18031 27005 ft 466 kts 156°
2026-05-05 09:04 -20.60080 -70.16440 27003 ft 467 kts 151°
2026-05-05 09:04 -20.62861 -70.14638 27002 ft 468 kts 149°
2026-05-05 09:04 -20.65601 -70.12756 27002 ft 468 kts 148°
2026-05-05 09:04 -20.68331 -70.10858 27005 ft 468 kts 148°
2026-05-05 09:05 -20.71068 -70.08971 27008 ft 468 kts 148°
2026-05-05 09:05 -20.73826 -70.07103 27012 ft 468 kts 149°
2026-05-05 09:05 -20.76584 -70.05257 27013 ft 469 kts 149°
2026-05-05 09:05 -20.79355 -70.03408 27012 ft 469 kts 149°
2026-05-05 09:06 -20.82093 -70.01584 27018 ft 470 kts 149°
2026-05-05 09:06 -20.84869 -69.99735 27023 ft 470 kts 149°
2026-05-05 09:06 -20.87646 -69.97885 27022 ft 470 kts 149°
2026-05-05 09:06 -20.90425 -69.96033 27028 ft 470 kts 149°
2026-05-05 09:07 -20.93198 -69.94182 27025 ft 471 kts 149°
2026-05-05 09:07 -20.95973 -69.92329 27027 ft 471 kts 149°
2026-05-05 09:07 -20.98758 -69.90466 27034 ft 471 kts 149°
2026-05-05 09:07 -21.01534 -69.88605 27035 ft 471 kts 149°
2026-05-05 09:08 -21.04320 -69.86734 27033 ft 471 kts 149°
2026-05-05 09:08 -21.07091 -69.84868 27032 ft 471 kts 149°
2026-05-05 09:08 -21.09867 -69.82993 27035 ft 471 kts 149°
2026-05-05 09:08 -21.12651 -69.81110 27034 ft 472 kts 149°
2026-05-05 09:09 -21.15433 -69.79224 27031 ft 472 kts 149°
2026-05-05 09:09 -21.18165 -69.77369 27035 ft 472 kts 149°
2026-05-05 09:09 -21.20940 -69.75479 27037 ft 472 kts 149°
2026-05-05 09:09 -21.23726 -69.73603 27037 ft 473 kts 150°
2026-05-05 09:10 -21.26523 -69.71743 27036 ft 473 kts 150°
2026-05-05 09:10 -21.29311 -69.69871 27037 ft 473 kts 149°
2026-05-05 09:10 -21.32095 -69.67974 27036 ft 474 kts 149°
2026-05-05 09:10 -21.33942 -69.66722 27039 ft 473 kts 150°
2026-05-05 09:11 -21.36738 -69.64851 27038 ft 473 kts 150°
2026-05-05 09:11 -21.39533 -69.62980 27037 ft 473 kts 150°
2026-05-05 09:11 -21.42321 -69.61078 27038 ft 473 kts 149°
2026-05-05 09:11 -21.45102 -69.59197 27036 ft 473 kts 150°
2026-05-05 09:12 -21.47892 -69.57328 27035 ft 473 kts 150°
2026-05-05 09:12 -21.50676 -69.55455 27033 ft 473 kts 150°
2026-05-05 09:12 -21.53460 -69.53547 27033 ft 473 kts 149°
2026-05-05 09:12 -21.56239 -69.51661 27033 ft 473 kts 150°
2026-05-05 09:13 -21.59027 -69.49786 27033 ft 473 kts 150°
2026-05-05 09:13 -21.61782 -69.47936 27033 ft 473 kts 150°
2026-05-05 09:13 -21.64566 -69.46044 27033 ft 473 kts 149°
2026-05-05 09:13 -21.67337 -69.44145 27034 ft 473 kts 150°
2026-05-05 09:14 -21.70123 -69.42262 27033 ft 473 kts 150°
2026-05-05 09:14 -21.72916 -69.40380 27037 ft 473 kts 150°
2026-05-05 09:14 -21.75706 -69.38495 27037 ft 473 kts 150°
2026-05-05 09:14 -21.78479 -69.36587 27038 ft 473 kts 149°
2026-05-05 09:15 -21.81262 -69.34691 27034 ft 473 kts 150°
2026-05-05 09:15 -21.84050 -69.32805 27033 ft 473 kts 150°
2026-05-05 09:15 -21.86808 -69.30942 27036 ft 473 kts 150°
2026-05-05 09:15 -21.89589 -69.29040 27036 ft 474 kts 149°
2026-05-05 09:16 -21.92369 -69.27128 27037 ft 474 kts 150°
2026-05-05 09:16 -21.95150 -69.25237 27037 ft 473 kts 150°
2026-05-05 09:16 -21.97938 -69.23349 27041 ft 473 kts 150°
2026-05-05 09:16 -22.00730 -69.21454 27043 ft 473 kts 150°
2026-05-05 09:17 -22.03497 -69.19542 27041 ft 473 kts 150°
2026-05-05 09:17 -22.06310 -69.17709 27041 ft 470 kts 158°
2026-05-05 09:17 -22.09295 -69.16673 27055 ft 463 kts 171°
2026-05-05 09:17 -22.12454 -69.15975 27051 ft 463 kts 173°
2026-05-05 09:18 -22.15650 -69.15604 27046 ft 460 kts 181°
2026-05-05 09:18 -22.18843 -69.15663 27044 ft 458 kts 186°
2026-05-05 09:18 -22.21943 -69.15898 26757 ft 445 kts 188°
2026-05-05 09:18 -22.24988 -69.16190 26311 ft 435 kts 189°
2026-05-05 09:19 -22.27995 -69.16498 25564 ft 433 kts 189°
2026-05-05 09:19 -22.31015 -69.16798 24736 ft 434 kts 188°
2026-05-05 09:19 -22.34034 -69.17077 23902 ft 436 kts 188°
2026-05-05 09:19 -22.37065 -69.17332 23023 ft 436 kts 187°
2026-05-05 09:20 -22.40058 -69.17577 22371 ft 428 kts 187°
2026-05-05 09:20 -22.42974 -69.17755 21709 ft 422 kts 182°
2026-05-05 09:20 -22.45855 -69.17193 21036 ft 422 kts 162°
2026-05-05 09:20 -22.48527 -69.15926 20402 ft 418 kts 156°
2026-05-05 09:21 -22.50913 -69.14161 19730 ft 417 kts 137°
2026-05-05 09:21 -22.52565 -69.11609 19100 ft 417 kts 116°
2026-05-05 09:21 -22.53295 -69.08593 18467 ft 416 kts 95°
2026-05-05 09:21 -22.53019 -69.05501 17747 ft 413 kts 75°
2026-05-05 09:22 -22.51982 -69.02627 17061 ft 407 kts 68°
2026-05-05 09:22 -22.50905 -68.99828 16399 ft 400 kts 69°
2026-05-05 09:22 -22.50105 -68.96975 15719 ft 392 kts 80°
2026-05-05 09:22 -22.49728 -68.94775 15216 ft 387 kts 82°
2026-05-05 09:23 -22.49592 -68.93004 14965 ft 391 kts 94°
2026-05-05 09:23 -22.49936 -68.90054 15015 ft 399 kts 100°
2026-05-05 09:23 -22.50309 -68.87062 15054 ft 403 kts 96°
2026-05-05 09:23 -22.50454 -68.84163 14888 ft 381 kts 93°
2026-05-05 09:24 -22.50568 -68.81369 14655 ft 363 kts 95°
2026-05-05 09:24 -22.50752 -68.78710 14377 ft 347 kts 96°
2026-05-05 09:24 -22.50920 -68.76184 14035 ft 318 kts 91°
2026-05-05 09:24 -22.50444 -68.73967 12938 ft 297 kts 60°
2026-05-05 09:25 -22.49077 -68.72439 12213 ft 275 kts 30°
2026-05-05 09:25 -22.47310 -68.71947 11621 ft 256 kts 356°
2026-05-05 09:25 -22.45669 -68.72573 11368 ft 252 kts 322°
2026-05-05 09:25 -22.44655 -68.74029 11287 ft 241 kts 291°
2026-05-05 09:26 -22.44106 -68.75730 11064 ft 239 kts 288°
2026-05-05 09:26 -22.43601 -68.77443 10846 ft 239 kts 288°
2026-05-05 09:26 -22.43082 -68.79148 10625 ft 238 kts 295°
2026-05-05 09:26 -22.42024 -68.80450 10408 ft 231 kts 334°
2026-05-05 09:27 -22.40494 -68.80766 10529 ft 226 kts
2026-05-05 09:27 -22.38921 -68.80702 10631 ft 227 kts
2026-05-05 09:27 -22.37352 -68.80591 10648 ft 219 kts
2026-05-05 09:27 -22.35907 -68.80622 10597 ft 203 kts 342°
2026-05-05 09:28 -22.34826 -68.81542 10582 ft 204 kts 299°
2026-05-05 09:28 -22.34584 -68.83021 10563 ft 205 kts 258°
2026-05-05 09:28 -22.35287 -68.84323 10595 ft 204 kts 223°
2026-05-05 09:28 -22.36398 -68.85274 10619 ft 203 kts 201°
2026-05-05 09:29 -22.37725 -68.85759 10576 ft 207 kts 196°
2026-05-05 09:29 -22.39114 -68.86213 10438 ft 208 kts 195°
2026-05-05 09:29 -22.40521 -68.86499 10209 ft 205 kts 172°
2026-05-05 09:29 -22.41742 -68.85848 10043 ft 195 kts 128°
2026-05-05 09:30 -22.42226 -68.84511 10077 ft 195 kts 99°
2026-05-05 09:30 -22.42425 -68.83051 10059 ft 197 kts 96°
2026-05-05 09:30 -22.42588 -68.81590 9980 ft 194 kts 95°
2026-05-05 09:30 -22.42727 -68.80134 9993 ft 195 kts 95°
2026-05-05 09:31 -22.42857 -68.78675 9979 ft 195 kts 95°
2026-05-05 09:31 -22.42979 -68.77215 9987 ft 195 kts 94°
2026-05-05 09:31 -22.43098 -68.75751 9968 ft 196 kts 94°
2026-05-05 09:31 -22.43214 -68.74280 9914 ft 195 kts 94°
2026-05-05 09:32 -22.43527 -68.72866 9871 ft 196 kts 120°
2026-05-05 09:32 -22.44602 -68.72039 9886 ft 198 kts 167°
2026-05-05 09:32 -22.45976 -68.71918 9941 ft 188 kts 177°
2026-05-05 09:32 -22.47216 -68.71908 9946 ft 175 kts 180°
2026-05-05 09:33 -22.48415 -68.72076 9946 ft 177 kts 205°
2026-05-05 09:33 -22.49246 -68.73040 9899 ft 179 kts 241°
2026-05-05 09:33 -22.49813 -68.74248 9919 ft 180 kts 244°
2026-05-05 09:33 -22.50339 -68.75487 9958 ft 182 kts 246°
2026-05-05 09:34 -22.50639 -68.76810 9953 ft 182 kts 261°
2026-05-05 09:34 -22.50822 -68.78163 9900 ft 183 kts 266°
2026-05-05 09:34 -22.50796 -68.79536 9749 ft 181 kts 275°
2026-05-05 09:34 -22.50670 -68.80844 9424 ft 168 kts 277°
2026-05-05 09:35 -22.50543 -68.82048 9174 ft 156 kts 275°
2026-05-05 09:35 -22.50398 -68.84320 8807 ft 150 kts 272°
2026-05-05 09:35 -22.50364 -68.85437 8592 ft 147 kts 271°
2026-05-05 09:36 -22.50286 -68.86541 8324 ft 147 kts 274°
2026-05-05 09:36 -22.50197 -68.87646 8055 ft 149 kts 274°
2026-05-05 09:36 -22.50117 -68.88784 7727 ft 153 kts 273°
2026-05-05 09:36 -22.50042 -68.89907 7568 ft 145 kts 274°
2026-05-05 09:37 -22.49978 -68.90824 7502 ft 90 kts 274°
2026-05-05 09:37 -22.49877 -68.91202 7475 ft 18 kts 305°
2026-05-05 09:37 -22.49808 -68.91279 7471 ft 15 kts 353°
2026-05-05 09:37 -22.49779 -68.91210 7474 ft 9 kts 95°
2026-05-05 09:38 -22.49783 -68.91146 7478 ft 11 kts 93°
2026-05-05 09:38 -22.49789 -68.91047 7486 ft 15 kts 94°
2026-05-05 09:38 -22.49755 -68.90949 7496 ft 15 kts
2026-05-05 09:38 -22.49667 -68.90941 7496 ft 10 kts 20°
2026-05-05 09:39 -22.49652 -68.90880 7506 ft 8 kts 94°
2026-05-05 09:39 -22.49655 -68.90830 7504 ft 6 kts 93°
2026-05-05 09:39 -22.49657 -68.90797 7502 ft 3 kts 95°
2026-05-05 09:39 -22.49656 -68.90763 7498 ft 6 kts 64°
2026-05-05 09:40 -22.49621 -68.90756 7509 ft 5 kts
2026-05-05 09:40 -22.49596 -68.90754 7499 ft 2 kts
2026-05-05 09:40 -22.49591 -68.90753 7502 ft 0 kts